Regional Weather Roundup
Issued by NWS

Home | Current Version | Previous Version | Text Only | Print | Product List | Glossary On
Versions: 1 2 3 4 5 6 7 8 9 10 11 12 13 14 15 16 17 18 19 20 21 22 23 24 25 26 27 28 29 30 31 32 33 34 35 36 37 38 39 40 41 42 43 44 45 46 47 48 49 50
000
ASUS44 KFWD 302303
RWRTX
NORTH TEXAS HOURLY WEATHER ROUNDUP
NATIONAL WEATHER SERVICE FORT WORTH TX
600 PM CDT SAT JUL 30 2016

NOTE: "FAIR" INDICATES FEW OR NO CLOUDS BELOW 12,000 FEET WITH NO
SIGNIFICANT WEATHER AND/OR OBSTRUCTIONS TO VISIBILITY.

TXZ118-119-310000-
DALLAS/FORT WORTH METROPLEX

CITY           SKY/WX    TMP DP  RH WIND       PRES   REMARKS
DFW AIRPORT    MOSUNNY   98  62  30 S15       29.89F HX  99
DALLAS LOVE    MOSUNNY   98  62  30 S14G22    29.89F HX  99
FTW MEACHAM    SUNNY     99  64  31 S12G23    29.89F HX 101
DAL-EXECUTIVE  SUNNY     96  64  34 VRB6      29.90F HX  98
FTW-ALLIANCE   MOSUNNY   97  64  33 S12       29.89F HX  99
FTW-NAS-JRB    SUNNY     98  62  30 S9        29.89F HX  99
FTW-SPINKS     MOSUNNY   99  63  30 S9        29.92F HX 100
ARLINGTON      SUNNY     98  63  31 S9        29.90F HX 100
GRAND PRAIRIE  SUNNY     97  63  32 SE9       29.91F HX  98
ADDISON        MOSUNNY   97  63  32 S5G16     29.91F HX  98
MESQUITE       MOSUNNY   95  64  36 SE8       29.91F HX  97
LANCASTER      SUNNY     98  62  30 S10G17    29.92F HX 100
$$

TXZ091>094-102>105-117-120-121-131>134-310000-
NORTH CENTRAL TEXAS

CITY           SKY/WX    TMP DP  RH WIND       PRES   REMARKS
SHRMAN/DENISON MOSUNNY   97  66  36 S13       29.91S HX 101
BOWIE          SUNNY     96  66  36 S10G16    29.90F HX 100
BRIDGEPORT     MOSUNNY   98  67  37 S9        29.91F HX 102
DECATUR        SUNNY     97  62  31 S10       29.92S HX  98
DENTON         MOSUNNY   95  68  41 S10       29.89F HX  99
MCKINNEY       MOSUNNY   95  67  39 S16G23    29.90F HX  99
GREENVILLE     MOSUNNY   99  61  28 S10G18    29.92F HX  99
ROCKWALL       SUNNY     97  66  36 S10G21    29.91F HX 100
TERRELL        SUNNY     97  62  31 SW10      29.92F HX  98
WAXAHACHIE     SUNNY     96  65  36 S8        29.92F HX  99
CLEBURNE       SUNNY     97  63  32 SE9       29.93S HX  98
GRANBURY       MOSUNNY  100  61  27 SE15      29.90F HX 101
$$

TXZ083>090-098>101-113>116-127>130-139>142-154-155-310000-
WESTERN NORTH TEXAS

CITY           SKY/WX    TMP DP  RH WIND       PRES   REMARKS
WICHITA FALLS  SUNNY     99  63  30 SW13      29.86F HX 101
WF-KICKAPOO    SUNNY    101  60  26 S15G23    29.88F HX 101
VERNON         MOSUNNY   92  59  33 N5        29.88F HX  91
ABILENE        SUNNY     96  60  30 SW14G21   29.93F HX  96
ABILENE-DYESS  SUNNY     98  62  30 SE12      29.91F HX  99
CISCO          SUNNY     97  61  30 S13G18    29.95F HAZE    HX  97
BRECKENRIDGE   MOSUNNY   99  58  25 SW9       29.91S HX  99
GRAHAM         MOSUNNY   99  64  32 SE7       29.88F HX 101
MINERAL WELLS  SUNNY     96  64  34 S9        29.89F HX  98
STEPHENVILLE   SUNNY     97  60  29 S8        29.96F HX  97
COMANCHE       PTSUNNY   94  64  37 SE7       29.94F HX  95
BROWNWOOD      LGT RAIN  95  61  31 SE9       29.92F HX  95
COLEMAN        MOSUNNY   98  58  26 SE10      29.93F HX  97
$$

TXZ143>147-156>162-174-175-310000-
CENTRAL TEXAS

CITY           SKY/WX    TMP DP  RH WIND       PRES   REMARKS
WACO           SUNNY     98  63  31 S13       29.91F HX 100
WACO-MCGREGOR  MOSUNNY   99  65  32 S13       29.92S HX 102
HILLSBORO      MOSUNNY   96  65  36 SE10      29.92F HX  98
CORSICANA      SUNNY     96  69  41 S12       29.93F HX 102
MEXIA          MOSUNNY   96  68  39 SE12      29.93S HX 100
HEARNE         PTSUNNY   96  70  42 CALM      29.94S HX 102
CAMERON        MOSUNNY   95  67  40 S13       29.93S HX  99
KILLEEN        MOSUNNY   95  65  37 SE15      29.92F HX  98
KILLEEN-SKYLRK SUNNY     96  68  39 SE12      29.93F HX 101
FORT HOOD      SUNNY     95  66  39 SE13      29.91F HX  98
GATESVILLE     SUNNY     97  66  36 SE6       29.94F HX 100
HAMILTON       SUNNY     97  60  28 S7G16     29.95S HX  97
LAMPASAS       SUNNY     97  64  33 S8        29.93F HX 100
$$

TXZ095>097-106>112-122>126-135>138-148>153-164>167-310000-
EAST TEXAS

CITY           SKY/WX    TMP DP  RH WIND       PRES   REMARKS
PARIS          CLOUDY    86  68  54 NE9       29.95S
SULPHUR SPRNGS MOSUNNY   97  63  32 S6        29.95R HX  98
MOUNT PLEASANT SUNNY     97  63  32 SW7       29.94F HX  99
GILMER         MOSUNNY   94  69  43 S5        29.94S HX 100
MINEOLA        SUNNY     97  66  36 E5        29.94S HX 100
TYLER          SUNNY     97  67  37 S9        29.94F HX 101
LONGVIEW       MOSUNNY   95  69  42 SW8       29.93S HX 100
MARSHALL       SUNNY     90  69  49 E3        29.96S HX  94
ATHENS         SUNNY     93  68  43 S7        29.92F HX  97
PALESTINE      SUNNY     95  69  42 S8        29.95S HX 100
JACKSONVILLE   MOSUNNY   95  67  40 SW6       29.98F HX  99
HENDERSON      SUNNY     93  68  43 S6        29.96S HX  97
CENTER         CLEAR     95  71  46 S6        29.97R HX 102
NACOGDOCHES    SUNNY    N/A N/A N/A SW9       29.93S
LUFKIN         SUNNY     94  68  42 SW9       29.95S HX  98
$$

SUPPLEMENTAL OBSERVATIONS (CENTRAL)

CITY           SKY/WX    TMP DP  RH WIND       PRES   REMARKS
$$

SUPPLEMENTAL OBSERVATIONS (WEST)

CITY           SKY/WX    TMP DP  RH WIND       PRES   REMARKS
$$

SUPPLEMENTAL OBSERVATIONS (EAST)

CITY           SKY/WX    TMP DP  RH WIND       PRES   REMARKS
$$

SUPPLEMENTAL OBSERVATIONS ARE A COLLECTION OF AUTOMATED INSTRUMENTS
THAT ARE MAINTAINED BY A VARIETY OF FEDERAL AND STATE AGENCIES.
CERTAIN ELEMENTS...SUCH AS HUMIDITY VALUES AND SUSTAINED WIND
SPEEDS...MAY BE APPROXIMATED.




USA.gov is the U.S. government's official web portal to all federal, state and local government web resources and services.